sat.trackr.live / text

‹ back to catalog

BALKAN-1

NORAD 62611 · 2025-009C

PAYLOAD ACTIVE UNKNOWN

§ Identity

Operator
Country
BUL
Launch date
2025-01-14
Launch site
AFWTR
Launch vehicle
Mass (kg)
RCS (m²)

External: N2YO · Heavens-Above · Gunter

§ Orbital elements

Epoch: 2026-05-25T04:15:51.283296Z

Period
94.45 min
Inclination
97.3921°
Eccentricity
0.0008319
Mean motion
15.24673639 rev/d
Perigee alt
486.1 km
Apogee alt
497.5 km
Semi-major
6,869.9 km
B*
2.7725e-4
RAAN
224.7063°
Arg perigee
64.4294°
Mean anomaly
295.7803°
Rev number
7,525

§ Raw data

BALKAN-11 62611U 25009C   26145.17767689  .00006787  00000+0  27725-3 0  99942 62611  97.3921 224.7063 0008319  64.4294 295.7803 15.24673639 75252

JSON: /api/v1/satellites/62611 · /tle

For live sub-satellite position, see the globe view (requires WebGL).

§ Visibility from observer

Set your observer location to see the next 7 days of passes ≥ 10°. The values pass through the URL so the page stays shareable.

No JS? Fill the form by hand. The geolocation button needs JavaScript.

§ Radio — SatNOGS DB

ModeDescriptionDownlinkUplink
FM Mode K - Transmitter 26.250 GHz
FM Mode K - Transmitter KIST 24.600 GHz
FM Mode S - Transmitter 2.277 GHz
FM Mode S - Transmitter SIST 1 2.103 GHz
FM Mode S - Transmitter SIST 2 2.278 GHz
GMSK UHF 9k6 Telemetry 401.360 MHz

6 transmitters · refreshed weekly from db.satnogs.org